TimeAST,TemperatureF,Dew PointF,Humidity,Sea Level PressureIn,VisibilityMPH,Wind Direction,Wind SpeedMPH,Gust SpeedMPH,PrecipitationIn,Events,Conditions,WindDirDegrees,DateUTC
12:00 AM,82.4,73.4,74,29.89,6.2,NNW,4.6,-,N/A,,Partly Cloudy,330,2011-10-08 21:00:00
12:30 AM,82.4,73.4,74,29.89,6.2,Variable,2.3,-,N/A,,Partly Cloudy,0,2011-10-08 21:30:00
1:00 AM,82.4,73.4,74,29.89,6.2,Variable,2.3,-,N/A,,Partly Cloudy,0,2011-10-08 22:00:00
1:30 AM,82.4,71.6,70,29.89,6.2,NNW,3.5,-,N/A,,Partly Cloudy,340,2011-10-08 22:30:00
2:00 AM,82.4,71.6,70,29.89,-9999.0,WNW,3.5,-,N/A,,Clear,300,2011-10-08 23:00:00
2:30 AM,82.4,71.6,70,29.89,-9999.0,WNW,1.2,-,N/A,,Clear,300,2011-10-08 23:30:00
3:00 AM,80,71,69,29.89,6,Calm,Calm,,,,,,2011-10-09 00:00:00
3:00 AM,80.6,71.6,74,29.89,-9999.0,Calm,Calm,-,N/A,,Clear,0,2011-10-09 00:00:00
3:30 AM,80.6,71.6,74,29.89,-9999.0,Calm,Calm,-,N/A,,Clear,0,2011-10-09 00:30:00
4:00 AM,78.8,71.6,78,29.89,-9999.0,Calm,Calm,-,N/A,,Clear,0,2011-10-09 01:00:00
4:30 AM,78.8,71.6,78,29.89,-9999.0,Calm,Calm,-,N/A,,Clear,0,2011-10-09 01:30:00
5:00 AM,78.8,71.6,78,29.89,-9999.0,Calm,Calm,-,N/A,,Clear,0,2011-10-09 02:00:00
5:30 AM,78.8,71.6,78,29.89,5.6,Variable,2.3,-,N/A,,Unknown,0,2011-10-09 02:30:00
6:00 AM,78.8,69.8,74,29.89,5.0,SW,3.5,-,N/A,,Unknown,230,2011-10-09 03:00:00
6:30 AM,80.6,71.6,74,29.92,5.0,Variable,2.3,-,N/A,,Unknown,0,2011-10-09 03:30:00
7:00 AM,82.4,71.6,70,29.92,5.0,WSW,3.5,-,N/A,,Partly Cloudy,250,2011-10-09 04:00:00
7:30 AM,84.2,71.6,66,29.92,6.2,South,3.5,-,N/A,,Partly Cloudy,190,2011-10-09 04:30:00
8:00 AM,84.2,71.6,66,29.92,6.2,South,3.5,-,N/A,,Partly Cloudy,190,2011-10-09 05:00:00
8:30 AM,86.0,69.8,58,29.92,6.2,South,3.5,-,N/A,,Partly Cloudy,180,2011-10-09 05:30:00
9:00 AM,86,71,53,29.95,6,South,3.5,,,,Scattered Clouds,190,2011-10-09 06:00:00
9:00 AM,86.0,71.6,62,29.95,6.2,South,3.5,-,N/A,,Partly Cloudy,190,2011-10-09 06:00:00
9:30 AM,87.8,68.0,52,29.95,6.2,South,4.6,-,N/A,,Partly Cloudy,190,2011-10-09 06:30:00
10:00 AM,89.6,68.0,49,29.95,-9999.0,South,3.5,-,N/A,,Clear,190,2011-10-09 07:00:00
10:30 AM,91.4,68.0,46,29.95,-9999.0,SSE,3.5,-,N/A,,Clear,160,2011-10-09 07:30:00
11:00 AM,91.4,66.2,43,29.92,-9999.0,SSE,5.8,-,N/A,,Clear,160,2011-10-09 08:00:00
11:30 AM,91.4,68.0,46,29.92,5.6,East,8.1,-,N/A,,Unknown,90,2011-10-09 08:30:00
12:00 PM,91.4,68.0,46,29.92,5.6,East,6.9,-,N/A,,Unknown,100,2011-10-09 09:00:00
12:30 PM,91.4,68.0,46,29.89,5.6,East,9.2,-,N/A,,Unknown,90,2011-10-09 09:30:00
1:00 PM,91.4,68.0,46,29.89,5.6,East,9.2,-,N/A,,Unknown,100,2011-10-09 10:00:00
1:30 PM,91.4,68.0,46,29.89,5.6,East,10.4,-,N/A,,Unknown,100,2011-10-09 10:30:00
2:00 PM,91.4,69.8,49,29.89,5.6,East,8.1,-,N/A,,Unknown,90,2011-10-09 11:00:00
2:30 PM,91.4,68.0,46,29.86,5.6,East,8.1,-,N/A,,Unknown,90,2011-10-09 11:30:00
3:00 PM,90,70,42,29.88,6,East,10.4,,,,Smoke,100,2011-10-09 12:00:00
3:00 PM,89.6,69.8,52,29.86,5.6,East,10.4,-,N/A,,Unknown,100,2011-10-09 12:00:00
3:30 PM,89.6,69.8,52,29.86,-9999.0,East,10.4,-,N/A,,Clear,100,2011-10-09 12:30:00
4:00 PM,87.8,71.6,58,29.86,-9999.0,East,8.1,-,N/A,,Clear,90,2011-10-09 13:00:00
4:30 PM,87.8,69.8,55,29.89,-9999.0,East,8.1,-,N/A,,Clear,100,2011-10-09 13:30:00
5:00 PM,87.8,71.6,58,29.89,5.6,East,6.9,-,N/A,,Unknown,90,2011-10-09 14:00:00
5:30 PM,86.0,71.6,62,29.89,5.0,ENE,5.8,-,N/A,,Unknown,70,2011-10-09 14:30:00
6:00 PM,86.0,71.6,62,29.89,5.0,NNE,4.6,-,N/A,,Unknown,30,2011-10-09 15:00:00
6:30 PM,86.0,71.6,62,29.89,5.0,NNE,5.8,-,N/A,,Unknown,20,2011-10-09 15:30:00
7:00 PM,86.0,71.6,62,29.89,5.0,NNE,4.6,-,N/A,,Unknown,20,2011-10-09 16:00:00
7:30 PM,86.0,73.4,66,29.92,5.0,NNE,3.5,-,N/A,,Unknown,20,2011-10-09 16:30:00
8:00 PM,86.0,73.4,66,29.92,5.0,North,3.5,-,N/A,,Unknown,10,2011-10-09 17:00:00
8:30 PM,86.0,73.4,66,29.92,5.0,Variable,2.3,-,N/A,,Unknown,0,2011-10-09 17:30:00
9:00 PM,84.2,73.4,70,29.92,5.0,Variable,2.3,-,N/A,,Unknown,0,2011-10-09 18:00:00
9:30 PM,86.0,73.4,66,29.92,5.0,NE,4.6,-,N/A,,Unknown,40,2011-10-09 18:30:00
10:00 PM,84.2,73.4,70,29.92,5.6,NNE,3.5,-,N/A,,Unknown,20,2011-10-09 19:00:00
10:30 PM,84.2,75.2,74,29.92,-9999.0,Variable,2.3,-,N/A,,Unknown,0,2011-10-09 19:30:00
11:00 PM,84.2,73.4,70,29.89,-9999.0,NNE,4.6,-,N/A,,Unknown,30,2011-10-09 20:00:00
11:30 PM,84.2,73.4,70,29.89,5.0,NE,3.5,-,N/A,,Unknown,50,2011-10-09 20:30:00